Regional Weather Roundup
Issued by NWS

Home | Current Version | Previous Version | Graphics & Text | Print | Product List | Glossary On
Versions: 1 2 3 4 5 6 7 8 9 10 11 12 13 14 15 16 17 18 19 20 21 22 23 24 25 26 27 28 29 30 31 32 33 34 35 36 37 38 39 40 41 42 43 44 45 46 47 48 49 50
000
ASUS45 KBOU 050207
RWRCO

WEATHER ROUNDUP FOR COLORADO
NATIONAL WEATHER SERVICE DENVER/BOULDER CO
800 PM MDT FRI SEP 04 2015

NOTE: "FAIR" INDICATES FEW OR NO CLOUDS BELOW 12000 FEET WITH NO
SIGNIFICANT WEATHER AND/OR OBSTRUCTIONS TO VISIBILITY.

COZ001>005-013-030-031-050300-
...NORTHWEST COLORADO...

CITY           SKY/WX    TMP DP  RH WIND       PRES   REMARKS
CRAIG          CLOUDY    69  45  41 S10       30.02S
HAYDEN         CLOUDY    64  45  48 SE15      30.05R
MEEKER         CLOUDY    65  47  52 E10       30.05R
MOUNT WERNER   NOT AVBL
STEAMBOAT SPGS CLOUDY    62  46  56 E8        30.09S
WALDEN         CLOUDY    55  43  62 S7        30.18S
$$

COZ006>008-011-050300-
...WEST CENTRAL VALLEYS...

CITY           SKY/WX    TMP DP  RH WIND       PRES   REMARKS
GRAND JUNCTION MOCLDY    66  57  72 E17       29.96S
MONTROSE       CLOUDY    63  55  75 SE9       30.08S
EAGLE          CLOUDY    63  54  72 CALM      30.14S
RIFLE          MOCLDY    60  56  86 CALM      30.05S
DELTA          RAIN      65  58  80 NE8       30.05R
NUCLA          CLOUDY    66  52  59 NE5       30.09R
$$

COZ017>023-064>068-050300-
...SOUTHWEST COLORADO...

CITY           SKY/WX    TMP DP  RH WIND       PRES   REMARKS
DURANGO        CLOUDY    60  56  86 NE3       30.16S
CORTEZ         PTCLDY    63  51  65 E8        30.09R
PAGOSA SPRINGS LGT RAIN  56  56  97 CALM      30.24S
TELLURIDE      CLOUDY    53  49  88 SE8       30.31F
WOLF CREEK PAS NOT AVBL
$$

COZ009-010-012-014-032>034-037-058>063-050300-
...CENTRAL COLORADO...

CITY           SKY/WX    TMP DP  RH WIND       PRES   REMARKS
ASPEN          LGT RAIN  55  51  86 SW5       30.20F
BUENA VISTA    CLOUDY    59  52  76 SE5       30.19R
COPPER MTN     CLOUDY    46  41  81 NW3       30.45S THUNDER
BERTHOUD PASS  CLOUDY    41  30  65 MISG      30.50R
COTTONWOOD PAS NOT AVBL
GUNNISON       CLOUDY    57  46  67 NE7       30.22R
KREMMLING      CLOUDY    55  50  82 CALM      30.19R
LEADVILLE      LGT RAIN  49  48  97 E5        30.31R
MONARCH PASS   MOCLDY    45  41  87 S16       30.55S
SALIDA         CLOUDY    66  46  49 S3        30.24R
SUNLIGHT       MOCLDY    46  45  93 SE5       30.39S
WILKERSON PASS MOCLDY    45  41  87 SW6       30.44R
$$

COZ069>075-050300-
...SAN LUIS VALLEY/SANGRE DE CRISTO MOUNTAINS...

CITY           SKY/WX    TMP DP  RH WIND       PRES   REMARKS
ALAMOSA        CLOUDY    59  48  67 S15       30.19S
LA VETA PASS   CLOUDY    46  43  87 MISG      30.35S
SAGUACHE       DRIZZLE   55  54  94 W3        30.21S
$$

COZ035-036-038>040-050300-
...NORTHERN COLORADO FRONT RANGE...

CITY           SKY/WX    TMP DP  RH WIND       PRES   REMARKS
DENVER INTL AP CLOUDY    75  45  34 NW5       29.97S
DMNS CITY PARK   N/A     71  49  46 E5        29.97S
AURORA         MOCLDY    73  46  38 W2        30.01R
FRONT RANGE AP CLOUDY    72  45  37 NW5       29.99R
ERIE MUNI ARPT MOCLDY    72  47  40 CALM      29.95S
BOULDER MUN AP MOCLDY    72  46  40 CALM      29.96S
CENTENNIAL     CLOUDY    73  47  39 SE5       30.02R
BROOMFIELD     MOCLDY    75  48  38 E5        29.99F
FORT COLLINS   CLOUDY    72  48  43 E3        29.95R
LONGMONT       CLOUDY    74  50  42 CALM      29.96S
$$

COZ041-046-047-076>085-087-088-050300-
...PIKES PEAK/PALMER DIVIDE AND SOUTHERN FOOTHILLS...

CITY           SKY/WX    TMP DP  RH WIND       PRES   REMARKS
COLO. SPRINGS  CLOUDY    75  46  35 SW5       30.03S
A. F. ACADEMY  CLOUDY    72  45  37 SE2       30.05S
ELLICOTT       CLOUDY   N/A N/A N/A SW7       30.02R
FALCON         CLOUDY    69  45  41 W6        30.09S
FORT CARSON    CLOUDY    74  51  44 W3        30.00R
LIMON          CLOUDY    76  48  37 SE7       29.96F
MONUMENT HILL  CLOUDY    64  46  52 NW6       30.10S
TRINIDAD       CLOUDY    73  48  41 SW13      30.06R
$$

COZ042>045-048>051-090-091-050300-
...NORTHEAST COLORADO...

CITY           SKY/WX    TMP DP  RH WIND       PRES   REMARKS
GREELEY ARPT   CLOUDY    73  52  46 W6        29.93R
AKRON          MOCLDY    77  45  32 SE9       29.90F
BURLINGTON     MOCLDY    80  51  36 SE12      29.91S
WRAY           CLOUDY    83  49  30 SE8       29.86R
STERLING       MOCLDY    82  46  28 SE9       29.85S
HOLYOKE        MOCLDY    79  54  41 E9        29.87S
FORT MORGAN    MOCLDY    77  43  29 SE6       29.89S
$$

COZ086-089-092>099-050300-
...SOUTHEAST COLORADO...

CITY           SKY/WX    TMP DP  RH WIND       PRES   REMARKS
PUEBLO         CLOUDY    83  48  29 SW16      29.92R
LA JUNTA       MOCLDY    87  47  24 SW17      29.89R
LAMAR          MOCLDY    86  48  26 SW16G22   29.84R
SPRINGFIELD      N/A     79  48  33 S13       29.96R
$$




USA.gov is the U.S. government's official web portal to all federal, state and local government web resources and services.